Year,Month,Day,Hour,Minute,Value (Times are PST for temperature in C)
2014,07,13,00,00,17.00
2014,07,13,00,01,17.00
2014,07,13,00,02,17.00
2014,07,13,00,03,16.90
2014,07,13,00,04,16.90
2014,07,13,00,05,16.90
2014,07,13,00,06,16.90
2014,07,13,00,07,16.90
2014,07,13,00,08,16.90
2014,07,13,00,09,16.90
2014,07,13,00,10,16.90
2014,07,13,00,11,16.90
2014,07,13,00,12,16.80
2014,07,13,00,13,16.80
2014,07,13,00,14,16.80
2014,07,13,00,15,16.80
2014,07,13,00,16,16.80
2014,07,13,00,17,16.80
2014,07,13,00,18,16.80
2014,07,13,00,19,16.80
2014,07,13,00,20,16.80
2014,07,13,00,21,16.80
2014,07,13,00,22,16.80
2014,07,13,00,23,16.70
2014,07,13,00,24,16.70
2014,07,13,00,25,16.70
2014,07,13,00,26,16.70
2014,07,13,00,27,16.70
2014,07,13,00,28,16.70
2014,07,13,00,29,16.70
2014,07,13,00,30,16.70
2014,07,13,00,31,16.70
2014,07,13,00,32,16.70
2014,07,13,00,33,16.70
2014,07,13,00,34,16.70
2014,07,13,00,35,16.80
2014,07,13,00,36,16.70
2014,07,13,00,37,16.70
2014,07,13,00,38,16.70
2014,07,13,00,39,16.70
2014,07,13,00,40,16.70
2014,07,13,00,41,16.70
2014,07,13,00,42,16.70
2014,07,13,00,43,16.70
2014,07,13,00,44,16.70
2014,07,13,00,45,16.70
2014,07,13,00,46,16.70
2014,07,13,00,47,16.70
2014,07,13,00,48,16.70
2014,07,13,00,49,16.70
2014,07,13,00,50,16.70
2014,07,13,00,51,16.70
2014,07,13,00,52,16.70
2014,07,13,00,53,16.70
2014,07,13,00,54,16.70
2014,07,13,00,55,16.70
2014,07,13,00,56,16.70
2014,07,13,00,57,16.70
2014,07,13,00,58,16.70
2014,07,13,00,59,16.70
2014,07,13,01,00,16.70
2014,07,13,01,01,16.70
2014,07,13,01,02,16.70
2014,07,13,01,03,16.70
2014,07,13,01,04,16.60
2014,07,13,01,05,16.60
2014,07,13,01,06,16.60
2014,07,13,01,07,16.60
2014,07,13,01,08,16.60
2014,07,13,01,09,16.60
2014,07,13,01,10,16.60
2014,07,13,01,11,16.60
2014,07,13,01,12,16.50
2014,07,13,01,13,16.50
2014,07,13,01,14,16.50
2014,07,13,01,15,16.50
2014,07,13,01,16,16.50
2014,07,13,01,17,16.50
2014,07,13,01,18,16.50
2014,07,13,01,19,16.50
2014,07,13,01,20,16.50
2014,07,13,01,21,16.50
2014,07,13,01,22,16.40
2014,07,13,01,23,16.40
2014,07,13,01,24,16.40
2014,07,13,01,25,16.40
2014,07,13,01,26,16.40
2014,07,13,01,27,16.40
2014,07,13,01,28,16.40
2014,07,13,01,29,16.40
2014,07,13,01,30,16.40
2014,07,13,01,31,16.40
2014,07,13,01,32,16.40
2014,07,13,01,33,16.30
2014,07,13,01,34,16.30
2014,07,13,01,35,16.30
2014,07,13,01,36,16.30
2014,07,13,01,37,16.30
2014,07,13,01,38,16.30
2014,07,13,01,39,16.30
2014,07,13,01,40,16.30
2014,07,13,01,41,16.30
2014,07,13,01,42,16.20
2014,07,13,01,43,16.20
2014,07,13,01,44,16.20
2014,07,13,01,45,16.20
2014,07,13,01,46,16.20
2014,07,13,01,47,16.20
2014,07,13,01,48,16.20
2014,07,13,01,49,16.10
2014,07,13,01,50,16.10
2014,07,13,01,51,16.10
2014,07,13,01,52,16.10
2014,07,13,01,53,16.10
2014,07,13,01,54,16.10
2014,07,13,01,55,16.00
2014,07,13,01,56,16.00
2014,07,13,01,57,16.00
2014,07,13,01,58,15.90
2014,07,13,01,59,15.90
2014,07,13,02,00,15.90
2014,07,13,02,01,15.90
2014,07,13,02,02,15.80
2014,07,13,02,03,15.80
2014,07,13,02,04,15.80
2014,07,13,02,05,15.80
2014,07,13,02,06,15.80
2014,07,13,02,07,15.70
2014,07,13,02,08,15.70
2014,07,13,02,09,15.70
2014,07,13,02,10,15.60
2014,07,13,02,11,15.60
2014,07,13,02,12,15.60
2014,07,13,02,13,15.50
2014,07,13,02,14,15.50
2014,07,13,02,15,15.40
2014,07,13,02,16,15.40
2014,07,13,02,17,15.30
2014,07,13,02,18,15.30
2014,07,13,02,19,15.20
2014,07,13,02,20,15.20
2014,07,13,02,21,15.20
2014,07,13,02,22,15.10
2014,07,13,02,23,15.10
2014,07,13,02,24,15.00
2014,07,13,02,25,15.00
2014,07,13,02,26,14.90
2014,07,13,02,27,14.90
2014,07,13,02,28,14.80
2014,07,13,02,29,14.80
2014,07,13,02,30,14.80
2014,07,13,02,31,14.80
2014,07,13,02,32,14.70
2014,07,13,02,33,14.70
2014,07,13,02,34,14.70
2014,07,13,02,35,14.70
2014,07,13,02,36,14.70
2014,07,13,02,37,14.70
2014,07,13,02,38,14.70
2014,07,13,02,39,14.60
2014,07,13,02,40,14.60
2014,07,13,02,41,14.60
2014,07,13,02,42,14.60
2014,07,13,02,43,14.60
2014,07,13,02,44,14.60
2014,07,13,02,45,14.50
2014,07,13,02,46,14.50
2014,07,13,02,47,14.50
2014,07,13,02,48,14.50
2014,07,13,02,49,14.50
2014,07,13,02,50,14.40
2014,07,13,02,51,14.40
2014,07,13,02,52,14.40
2014,07,13,02,53,14.40
2014,07,13,02,54,14.40
2014,07,13,02,55,14.40
2014,07,13,02,56,14.40
2014,07,13,02,57,14.40
2014,07,13,02,58,14.30
2014,07,13,02,59,14.30
2014,07,13,03,00,14.30
2014,07,13,03,01,14.30
2014,07,13,03,02,14.30
2014,07,13,03,03,14.30
2014,07,13,03,04,14.30
2014,07,13,03,05,14.30
2014,07,13,03,06,14.30
2014,07,13,03,07,14.30
2014,07,13,03,08,14.30
2014,07,13,03,09,14.30
2014,07,13,03,10,14.30
2014,07,13,03,11,14.30
2014,07,13,03,12,14.30
2014,07,13,03,13,14.20
2014,07,13,03,14,14.20
2014,07,13,03,15,14.20
2014,07,13,03,16,14.20
2014,07,13,03,17,14.20
2014,07,13,03,18,14.20
2014,07,13,03,19,14.20
2014,07,13,03,20,14.10
2014,07,13,03,21,14.10
2014,07,13,03,22,14.10
2014,07,13,03,23,14.10
2014,07,13,03,24,14.10
2014,07,13,03,25,14.10
2014,07,13,03,26,14.10
2014,07,13,03,27,14.00
2014,07,13,03,28,14.00
2014,07,13,03,29,14.00
2014,07,13,03,30,14.00
2014,07,13,03,31,14.00
2014,07,13,03,32,13.90
2014,07,13,03,33,13.90
2014,07,13,03,34,13.90
2014,07,13,03,35,13.90
2014,07,13,03,36,13.90
2014,07,13,03,37,13.90
2014,07,13,03,38,13.90
2014,07,13,03,39,13.80
2014,07,13,03,40,13.80
2014,07,13,03,41,13.80
2014,07,13,03,42,13.80
2014,07,13,03,43,13.80
2014,07,13,03,44,13.80
2014,07,13,03,45,13.80
2014,07,13,03,46,13.80
2014,07,13,03,47,13.80
2014,07,13,03,48,13.80
2014,07,13,03,49,13.80
2014,07,13,03,50,13.80
2014,07,13,03,51,13.80
2014,07,13,03,52,13.80
2014,07,13,03,53,13.80
2014,07,13,03,54,13.80
2014,07,13,03,55,13.90
2014,07,13,03,56,13.90
2014,07,13,03,57,13.90
2014,07,13,03,58,13.90
2014,07,13,03,59,13.90
2014,07,13,04,00,13.90
2014,07,13,04,01,13.90
2014,07,13,04,02,13.90
2014,07,13,04,03,13.90
2014,07,13,04,04,13.90
2014,07,13,04,05,13.90
2014,07,13,04,06,13.90
2014,07,13,04,07,13.80
2014,07,13,04,08,13.80
2014,07,13,04,09,13.80
2014,07,13,04,10,13.80
2014,07,13,04,11,13.80
2014,07,13,04,12,13.80
2014,07,13,04,13,13.80
2014,07,13,04,14,13.80
2014,07,13,04,15,13.80
2014,07,13,04,16,13.80
2014,07,13,04,17,13.80
2014,07,13,04,18,13.80
2014,07,13,04,19,13.80
2014,07,13,04,20,13.70
2014,07,13,04,21,13.70
2014,07,13,04,22,13.70
2014,07,13,04,23,13.70
2014,07,13,04,24,13.70
2014,07,13,04,25,13.70
2014,07,13,04,26,13.70
2014,07,13,04,27,13.60
2014,07,13,04,28,13.60
2014,07,13,04,29,13.60
2014,07,13,04,30,13.60
2014,07,13,04,31,13.60
2014,07,13,04,32,13.60
2014,07,13,04,33,13.60
2014,07,13,04,34,13.60
2014,07,13,04,35,13.50
2014,07,13,04,36,13.50
2014,07,13,04,37,13.50
2014,07,13,04,38,13.50
2014,07,13,04,39,13.50
2014,07,13,04,40,13.50
2014,07,13,04,41,13.50
2014,07,13,04,42,13.50
2014,07,13,04,43,13.50
2014,07,13,04,44,13.50
2014,07,13,04,45,13.50
2014,07,13,04,46,13.50
2014,07,13,04,47,13.50
2014,07,13,04,48,13.50
2014,07,13,04,49,13.50
2014,07,13,04,50,13.50
2014,07,13,04,51,13.50
2014,07,13,04,52,13.50
2014,07,13,04,53,13.50
2014,07,13,04,54,13.50
2014,07,13,04,55,13.50
2014,07,13,04,56,13.50
2014,07,13,04,57,13.50
2014,07,13,04,58,13.60
2014,07,13,04,59,13.60
2014,07,13,05,00,13.60
2014,07,13,05,01,13.60
2014,07,13,05,02,13.60
2014,07,13,05,03,13.70
2014,07,13,05,04,13.70
2014,07,13,05,05,13.70
2014,07,13,05,06,13.70
2014,07,13,05,07,13.70
2014,07,13,05,08,13.80
2014,07,13,05,09,13.80
2014,07,13,05,10,13.80
2014,07,13,05,11,13.80
2014,07,13,05,12,13.80
2014,07,13,05,13,13.70
2014,07,13,05,14,13.80
2014,07,13,05,15,13.70
2014,07,13,05,16,13.70
2014,07,13,05,17,13.70
2014,07,13,05,18,13.70
2014,07,13,05,19,13.70
2014,07,13,05,20,13.70
2014,07,13,05,21,13.70
2014,07,13,05,22,13.70
2014,07,13,05,23,13.70
2014,07,13,05,24,13.70
2014,07,13,05,25,13.70
2014,07,13,05,26,13.70
2014,07,13,05,27,13.70
2014,07,13,05,28,13.70
2014,07,13,05,29,13.70
2014,07,13,05,30,13.70
2014,07,13,05,31,13.70
2014,07,13,05,32,13.60
2014,07,13,05,33,13.60
2014,07,13,05,34,13.60
2014,07,13,05,35,13.60
2014,07,13,05,36,13.60
2014,07,13,05,37,13.60
2014,07,13,05,38,13.60
2014,07,13,05,39,13.60
2014,07,13,05,40,13.60
2014,07,13,05,41,13.60
2014,07,13,05,42,13.60
2014,07,13,05,43,13.60
2014,07,13,05,44,13.60
2014,07,13,05,45,13.60
2014,07,13,05,46,13.60
2014,07,13,05,47,13.50
2014,07,13,05,48,13.50
2014,07,13,05,49,13.50
2014,07,13,05,50,13.50
2014,07,13,05,51,13.50
2014,07,13,05,52,13.50
2014,07,13,05,53,13.50
2014,07,13,05,54,13.40
2014,07,13,05,55,13.40
2014,07,13,05,56,13.40
2014,07,13,05,57,13.40
2014,07,13,05,58,13.40
2014,07,13,05,59,13.40
2014,07,13,06,00,13.40
2014,07,13,06,01,13.40
2014,07,13,06,02,13.40
2014,07,13,06,03,13.30
2014,07,13,06,04,13.40
2014,07,13,06,05,13.30
2014,07,13,06,06,13.30
2014,07,13,06,07,13.30
2014,07,13,06,08,13.30
2014,07,13,06,09,13.30
2014,07,13,06,10,13.30
2014,07,13,06,11,13.30
2014,07,13,06,12,13.30
2014,07,13,06,13,13.30
2014,07,13,06,14,13.30
2014,07,13,06,15,13.30
2014,07,13,06,16,13.30
2014,07,13,06,17,13.40
2014,07,13,06,18,13.40
2014,07,13,06,19,13.40
2014,07,13,06,20,13.40
2014,07,13,06,21,13.40
2014,07,13,06,22,13.40
2014,07,13,06,23,13.40
2014,07,13,06,24,13.50
2014,07,13,06,25,13.50
2014,07,13,06,26,13.60
2014,07,13,06,27,13.60
2014,07,13,06,28,13.70
2014,07,13,06,29,13.70
2014,07,13,06,30,13.80
2014,07,13,06,31,13.80
2014,07,13,06,32,13.90
2014,07,13,06,33,13.90
2014,07,13,06,34,14.00
2014,07,13,06,35,14.10
2014,07,13,06,36,14.10
2014,07,13,06,37,14.20
2014,07,13,06,38,14.30
2014,07,13,06,39,14.30
2014,07,13,06,40,14.40
2014,07,13,06,41,14.50
2014,07,13,06,42,14.50
2014,07,13,06,43,14.60
2014,07,13,06,44,14.60
2014,07,13,06,45,14.70
2014,07,13,06,46,14.70
2014,07,13,06,47,14.80
2014,07,13,06,48,14.80
2014,07,13,06,49,14.80
2014,07,13,06,50,14.80
2014,07,13,06,51,14.90
2014,07,13,06,52,14.90
2014,07,13,06,53,14.90
2014,07,13,06,54,14.90
2014,07,13,06,55,14.90
2014,07,13,06,56,15.00
2014,07,13,06,57,15.00
2014,07,13,06,58,15.00
2014,07,13,06,59,15.00
2014,07,13,07,00,15.00
2014,07,13,07,01,15.10
2014,07,13,07,02,15.10
2014,07,13,07,03,15.10
2014,07,13,07,04,15.10
2014,07,13,07,05,15.10
2014,07,13,07,06,15.10
2014,07,13,07,07,15.10
2014,07,13,07,08,15.20
2014,07,13,07,09,15.20
2014,07,13,07,10,15.20
2014,07,13,07,11,15.20
2014,07,13,07,12,15.30
2014,07,13,07,13,15.30
2014,07,13,07,14,15.30
2014,07,13,07,15,15.30
2014,07,13,07,16,15.30
2014,07,13,07,17,15.30
2014,07,13,07,18,15.40
2014,07,13,07,19,15.40
2014,07,13,07,20,15.40
2014,07,13,07,21,15.40
2014,07,13,07,22,15.40
2014,07,13,07,23,15.40
2014,07,13,07,24,15.50
2014,07,13,07,25,15.50
2014,07,13,07,26,15.60
2014,07,13,07,27,15.60
2014,07,13,07,28,15.60
2014,07,13,07,29,15.70
2014,07,13,07,30,15.70
2014,07,13,07,31,15.80
2014,07,13,07,32,15.80
2014,07,13,07,33,15.90
2014,07,13,07,34,16.00
2014,07,13,07,35,16.10
2014,07,13,07,36,16.10
2014,07,13,07,37,16.20
2014,07,13,07,38,16.20
2014,07,13,07,39,16.30
2014,07,13,07,40,16.40
2014,07,13,07,41,16.50
2014,07,13,07,42,16.50
2014,07,13,07,43,16.60
2014,07,13,07,44,16.70
2014,07,13,07,45,16.80
2014,07,13,07,46,16.80
2014,07,13,07,47,16.90
2014,07,13,07,48,16.90
2014,07,13,07,49,17.00
2014,07,13,07,50,17.00
2014,07,13,07,51,17.10
2014,07,13,07,52,17.10
2014,07,13,07,53,17.20
2014,07,13,07,54,17.30
2014,07,13,07,55,17.40
2014,07,13,07,56,17.40
2014,07,13,07,57,17.50
2014,07,13,07,58,17.60
2014,07,13,07,59,17.60
2014,07,13,08,00,17.70
2014,07,13,08,01,17.80
2014,07,13,08,02,17.80
2014,07,13,08,03,17.90
2014,07,13,08,04,17.90
2014,07,13,08,05,18.00
2014,07,13,08,06,18.00
2014,07,13,08,07,18.10
2014,07,13,08,08,18.10
2014,07,13,08,09,18.10
2014,07,13,08,10,18.10
2014,07,13,08,11,18.10
2014,07,13,08,12,18.20
2014,07,13,08,13,18.20
2014,07,13,08,14,18.20
2014,07,13,08,15,18.30
2014,07,13,08,16,18.30
2014,07,13,08,17,18.30
2014,07,13,08,18,18.40
2014,07,13,08,19,18.40
2014,07,13,08,20,18.50
2014,07,13,08,21,18.50
2014,07,13,08,22,18.60
2014,07,13,08,23,18.70
2014,07,13,08,24,18.80
2014,07,13,08,25,18.90
2014,07,13,08,26,19.00
2014,07,13,08,27,19.10
2014,07,13,08,28,19.20
2014,07,13,08,29,19.30
2014,07,13,08,30,19.30
2014,07,13,08,31,19.40
2014,07,13,08,32,19.50
2014,07,13,08,33,19.60
2014,07,13,08,34,19.70
2014,07,13,08,35,19.80
2014,07,13,08,36,19.80
2014,07,13,08,37,19.90
2014,07,13,08,38,19.90
2014,07,13,08,39,19.90
2014,07,13,08,40,20.00
2014,07,13,08,41,20.10
2014,07,13,08,42,20.10
2014,07,13,08,43,20.20
2014,07,13,08,44,20.20
2014,07,13,08,45,20.30
2014,07,13,08,46,20.30
2014,07,13,08,47,20.30
2014,07,13,08,48,20.30
2014,07,13,08,49,20.40
2014,07,13,08,50,20.40
2014,07,13,08,51,20.40
2014,07,13,08,52,20.40
2014,07,13,08,53,20.50
2014,07,13,08,54,20.50
2014,07,13,08,55,20.60
2014,07,13,08,56,20.70
2014,07,13,08,57,20.70
2014,07,13,08,58,20.80
2014,07,13,08,59,20.90
2014,07,13,09,00,20.90
2014,07,13,09,01,21.00
2014,07,13,09,02,21.10
2014,07,13,09,03,21.10
2014,07,13,09,04,21.10
2014,07,13,09,05,21.20
2014,07,13,09,06,21.20
2014,07,13,09,07,21.20
2014,07,13,09,08,21.20
2014,07,13,09,09,21.30
2014,07,13,09,10,21.30
2014,07,13,09,11,21.40
2014,07,13,09,12,21.40
2014,07,13,09,13,21.50
2014,07,13,09,14,21.60
2014,07,13,09,15,21.70
2014,07,13,09,16,21.80
2014,07,13,09,17,21.90
2014,07,13,09,18,22.00
2014,07,13,09,19,22.10
2014,07,13,09,20,22.20
2014,07,13,09,21,22.30
2014,07,13,09,22,22.40
2014,07,13,09,23,22.50
2014,07,13,09,24,22.60
2014,07,13,09,25,22.70
2014,07,13,09,26,22.80
2014,07,13,09,27,22.80
2014,07,13,09,28,22.90
2014,07,13,09,29,22.90
2014,07,13,09,30,23.00
2014,07,13,09,31,23.00
2014,07,13,09,32,23.00
2014,07,13,09,33,23.10
2014,07,13,09,34,23.10
2014,07,13,09,35,23.20
2014,07,13,09,36,23.20
2014,07,13,09,37,23.30
2014,07,13,09,38,23.40
2014,07,13,09,39,23.40
2014,07,13,09,40,23.40
2014,07,13,09,41,23.50
2014,07,13,09,42,23.50
2014,07,13,09,43,23.60
2014,07,13,09,44,23.60
2014,07,13,09,45,23.60
2014,07,13,09,46,23.70
2014,07,13,09,47,23.70
2014,07,13,09,48,23.80
2014,07,13,09,49,23.80
2014,07,13,09,50,23.90
2014,07,13,09,51,24.00
2014,07,13,09,52,24.00
2014,07,13,09,53,24.00
2014,07,13,09,54,24.10
2014,07,13,09,55,24.10
2014,07,13,09,56,24.10
2014,07,13,09,57,24.20
2014,07,13,09,58,24.20
2014,07,13,09,59,24.20
2014,07,13,10,00,24.10
2014,07,13,10,01,24.10
2014,07,13,10,02,24.00
2014,07,13,10,03,23.90
2014,07,13,10,04,23.80
2014,07,13,10,05,23.80
2014,07,13,10,06,23.70
2014,07,13,10,07,23.70
2014,07,13,10,08,23.60
2014,07,13,10,09,23.60
2014,07,13,10,10,23.70
2014,07,13,10,11,23.70
2014,07,13,10,12,23.80
2014,07,13,10,13,23.80
2014,07,13,10,14,23.90
2014,07,13,10,15,23.90
2014,07,13,10,16,24.00
2014,07,13,10,17,24.00
2014,07,13,10,18,24.00
2014,07,13,10,19,23.90
2014,07,13,10,20,23.80
2014,07,13,10,21,23.80
2014,07,13,10,22,23.70
2014,07,13,10,23,23.60
2014,07,13,10,24,23.50
2014,07,13,10,25,23.30
2014,07,13,10,26,23.00
2014,07,13,10,27,22.80
2014,07,13,10,28,22.50
2014,07,13,10,29,22.30
2014,07,13,10,30,22.10
2014,07,13,10,31,22.00
2014,07,13,10,32,21.80
2014,07,13,10,33,21.70
2014,07,13,10,34,21.50
2014,07,13,10,35,21.40
2014,07,13,10,36,21.30
2014,07,13,10,37,21.10
2014,07,13,10,38,21.00
2014,07,13,10,39,20.90
2014,07,13,10,40,20.90
2014,07,13,10,41,20.90
2014,07,13,10,42,20.80
2014,07,13,10,43,20.80
2014,07,13,10,44,20.80
2014,07,13,10,45,20.80
2014,07,13,10,46,20.80
2014,07,13,10,47,20.80
2014,07,13,10,48,20.90
2014,07,13,10,49,20.90
2014,07,13,10,50,20.90
2014,07,13,10,51,20.90
2014,07,13,10,52,20.90
2014,07,13,10,53,21.00
2014,07,13,10,54,21.00
2014,07,13,10,55,21.10
2014,07,13,10,56,21.10
2014,07,13,10,57,21.20
2014,07,13,10,58,21.20
2014,07,13,10,59,21.20
2014,07,13,11,00,21.30
2014,07,13,11,01,21.30
2014,07,13,11,02,21.30
2014,07,13,11,03,21.30
2014,07,13,11,04,21.30
2014,07,13,11,05,21.30
2014,07,13,11,06,21.40
2014,07,13,11,07,21.40
2014,07,13,11,08,21.40
2014,07,13,11,09,21.40
2014,07,13,11,10,21.30
2014,07,13,11,11,21.40
2014,07,13,11,12,21.40
2014,07,13,11,13,21.40
2014,07,13,11,14,21.50
2014,07,13,11,15,21.60
2014,07,13,11,16,21.60
2014,07,13,11,17,21.70
2014,07,13,11,18,21.70
2014,07,13,11,19,21.80
2014,07,13,11,20,21.80
2014,07,13,11,21,21.90
2014,07,13,11,22,22.00
2014,07,13,11,23,22.10
2014,07,13,11,24,22.30
2014,07,13,11,25,22.40
2014,07,13,11,26,22.50
2014,07,13,11,27,22.70
2014,07,13,11,28,22.80
2014,07,13,11,29,22.90
2014,07,13,11,30,23.00
2014,07,13,11,31,23.10
2014,07,13,11,32,23.20
2014,07,13,11,33,23.20
2014,07,13,11,34,23.30
2014,07,13,11,35,23.30
2014,07,13,11,36,23.40
2014,07,13,11,37,23.40
2014,07,13,11,38,23.50
2014,07,13,11,39,23.50
2014,07,13,11,40,23.60
2014,07,13,11,41,23.70
2014,07,13,11,42,23.70
2014,07,13,11,43,23.70
2014,07,13,11,44,23.70
2014,07,13,11,45,23.60
2014,07,13,11,46,23.50
2014,07,13,11,47,23.30
2014,07,13,11,48,23.20
2014,07,13,11,49,23.00
2014,07,13,11,50,22.90
2014,07,13,11,51,22.80
2014,07,13,11,52,22.60
2014,07,13,11,53,22.50
2014,07,13,11,54,22.40
2014,07,13,11,55,22.30
2014,07,13,11,56,22.20
2014,07,13,11,57,22.10
2014,07,13,11,58,22.10
2014,07,13,11,59,22.10
2014,07,13,12,00,22.00
2014,07,13,12,01,22.00
2014,07,13,12,02,21.90
2014,07,13,12,03,21.70
2014,07,13,12,04,21.60
2014,07,13,12,05,21.50
2014,07,13,12,06,21.50
2014,07,13,12,07,21.60
2014,07,13,12,08,21.60
2014,07,13,12,09,21.60
2014,07,13,12,10,21.60
2014,07,13,12,11,21.70
2014,07,13,12,12,21.70
2014,07,13,12,13,21.80
2014,07,13,12,14,21.90
2014,07,13,12,15,21.90
2014,07,13,12,16,22.00
2014,07,13,12,17,22.00
2014,07,13,12,18,22.10
2014,07,13,12,19,22.10
2014,07,13,12,20,22.10
2014,07,13,12,21,22.20
2014,07,13,12,22,22.30
2014,07,13,12,23,22.30
2014,07,13,12,24,22.50
2014,07,13,12,25,22.60
2014,07,13,12,26,22.70
2014,07,13,12,27,22.70
2014,07,13,12,28,22.80
2014,07,13,12,29,23.00
2014,07,13,12,30,23.10
2014,07,13,12,31,23.20
2014,07,13,12,32,23.30
2014,07,13,12,33,23.30
2014,07,13,12,34,23.20
2014,07,13,12,35,23.20
2014,07,13,12,36,23.20
2014,07,13,12,37,23.30
2014,07,13,12,38,23.30
2014,07,13,12,39,23.40
2014,07,13,12,40,23.40
2014,07,13,12,41,23.40
2014,07,13,12,42,23.40
2014,07,13,12,43,23.40
2014,07,13,12,44,23.40
2014,07,13,12,45,23.40
2014,07,13,12,46,23.40
2014,07,13,12,47,23.40
2014,07,13,12,48,23.40
2014,07,13,12,49,23.50
2014,07,13,12,50,23.50
2014,07,13,12,51,23.60
2014,07,13,12,52,23.60
2014,07,13,12,53,23.60
2014,07,13,12,54,23.70
2014,07,13,12,55,23.70
2014,07,13,12,56,23.70
2014,07,13,12,57,23.80
2014,07,13,12,58,23.80
2014,07,13,12,59,23.80
2014,07,13,13,00,23.90
2014,07,13,13,01,23.90
2014,07,13,13,02,24.00
2014,07,13,13,03,24.10
2014,07,13,13,04,24.10
2014,07,13,13,05,24.20
2014,07,13,13,06,24.30
2014,07,13,13,07,24.50
2014,07,13,13,08,24.60
2014,07,13,13,09,24.70
2014,07,13,13,10,24.70
2014,07,13,13,11,24.80
2014,07,13,13,12,24.90
2014,07,13,13,13,25.10
2014,07,13,13,14,25.20
2014,07,13,13,15,25.30
2014,07,13,13,16,25.40
2014,07,13,13,17,25.40
2014,07,13,13,18,25.40
2014,07,13,13,19,25.50
2014,07,13,13,20,25.50
2014,07,13,13,21,25.50
2014,07,13,13,22,25.50
2014,07,13,13,23,25.60
2014,07,13,13,24,25.60
2014,07,13,13,25,25.60
2014,07,13,13,26,25.70
2014,07,13,13,27,25.70
2014,07,13,13,28,25.70
2014,07,13,13,29,25.80
2014,07,13,13,30,25.80
2014,07,13,13,31,25.80
2014,07,13,13,32,25.90
2014,07,13,13,33,26.00
2014,07,13,13,34,26.00
2014,07,13,13,35,26.10
2014,07,13,13,36,26.10
2014,07,13,13,37,26.20
2014,07,13,13,38,26.30
2014,07,13,13,39,26.30
2014,07,13,13,40,26.30
2014,07,13,13,41,26.30
2014,07,13,13,42,26.20
2014,07,13,13,43,26.30
2014,07,13,13,44,26.30
2014,07,13,13,45,26.40
2014,07,13,13,46,26.50
2014,07,13,13,47,26.60
2014,07,13,13,48,26.60
2014,07,13,13,49,26.70
2014,07,13,13,50,26.70
2014,07,13,13,51,26.70
2014,07,13,13,52,26.70
2014,07,13,13,53,26.70
2014,07,13,13,54,26.60
2014,07,13,13,55,26.60
2014,07,13,13,56,26.70
2014,07,13,13,57,26.70
2014,07,13,13,58,26.70
2014,07,13,13,59,26.70
2014,07,13,14,00,26.70
2014,07,13,14,01,26.60
2014,07,13,14,02,26.60
2014,07,13,14,03,26.50
2014,07,13,14,04,26.50
2014,07,13,14,05,26.40
2014,07,13,14,06,26.40
2014,07,13,14,07,26.30
2014,07,13,14,08,26.20
2014,07,13,14,09,26.20
2014,07,13,14,10,26.00
2014,07,13,14,11,26.00
2014,07,13,14,12,25.90
2014,07,13,14,13,25.90
2014,07,13,14,14,25.90
2014,07,13,14,15,25.90
2014,07,13,14,16,25.90
2014,07,13,14,17,25.80
2014,07,13,14,18,25.70
2014,07,13,14,19,25.60
2014,07,13,14,20,25.50
2014,07,13,14,21,25.40
2014,07,13,14,22,25.30
2014,07,13,14,23,25.20
2014,07,13,14,24,25.00
2014,07,13,14,25,24.90
2014,07,13,14,26,24.90
2014,07,13,14,27,24.90
2014,07,13,14,28,24.90
2014,07,13,14,29,24.90
2014,07,13,14,30,24.90
2014,07,13,14,31,25.00
2014,07,13,14,32,25.00
2014,07,13,14,33,25.10
2014,07,13,14,34,25.10
2014,07,13,14,35,25.10
2014,07,13,14,36,25.00
2014,07,13,14,37,24.90
2014,07,13,14,38,24.90
2014,07,13,14,39,24.80
2014,07,13,14,40,24.80
2014,07,13,14,41,24.80
2014,07,13,14,42,24.80
2014,07,13,14,43,24.80
2014,07,13,14,44,24.80
2014,07,13,14,45,24.80
2014,07,13,14,46,24.80
2014,07,13,14,47,24.80
2014,07,13,14,48,24.80
2014,07,13,14,49,24.80
2014,07,13,14,50,24.80
2014,07,13,14,51,24.80
2014,07,13,14,52,24.80
2014,07,13,14,53,24.80
2014,07,13,14,54,24.80
2014,07,13,14,55,24.90
2014,07,13,14,56,24.90
2014,07,13,14,57,24.90
2014,07,13,14,58,24.90
2014,07,13,14,59,24.90
2014,07,13,15,00,24.80
2014,07,13,15,01,24.70
2014,07,13,15,02,24.70
2014,07,13,15,03,24.70
2014,07,13,15,04,24.70
2014,07,13,15,05,24.70
2014,07,13,15,06,24.70
2014,07,13,15,07,24.60
2014,07,13,15,08,24.50
2014,07,13,15,09,24.50
2014,07,13,15,10,24.40
2014,07,13,15,11,24.40
2014,07,13,15,12,24.40
2014,07,13,15,13,24.40
2014,07,13,15,14,24.50
2014,07,13,15,15,24.50
2014,07,13,15,16,24.60
2014,07,13,15,17,24.60
2014,07,13,15,18,24.60
2014,07,13,15,19,24.50
2014,07,13,15,20,24.50
2014,07,13,15,21,24.50
2014,07,13,15,22,24.50
2014,07,13,15,23,24.50
2014,07,13,15,24,24.40
2014,07,13,15,25,24.30
2014,07,13,15,26,24.20
2014,07,13,15,27,24.10
2014,07,13,15,28,24.10
2014,07,13,15,29,24.00
2014,07,13,15,30,23.90
2014,07,13,15,31,23.90
2014,07,13,15,32,23.80
2014,07,13,15,33,23.80
2014,07,13,15,34,23.80
2014,07,13,15,35,23.90
2014,07,13,15,36,23.90
2014,07,13,15,37,24.00
2014,07,13,15,38,24.10
2014,07,13,15,39,24.20
2014,07,13,15,40,24.20
2014,07,13,15,41,24.30
2014,07,13,15,42,24.30
2014,07,13,15,43,24.40
2014,07,13,15,44,24.40
2014,07,13,15,45,24.40
2014,07,13,15,46,24.40
2014,07,13,15,47,24.40
2014,07,13,15,48,24.40
2014,07,13,15,49,24.40
2014,07,13,15,50,24.40
2014,07,13,15,51,24.40
2014,07,13,15,52,24.40
2014,07,13,15,53,24.40
2014,07,13,15,54,24.40
2014,07,13,15,55,24.40
2014,07,13,15,56,24.40
2014,07,13,15,57,24.30
2014,07,13,15,58,24.30
2014,07,13,15,59,24.30
2014,07,13,16,00,24.30
2014,07,13,16,01,24.30
2014,07,13,16,02,24.30
2014,07,13,16,03,24.30
2014,07,13,16,04,24.30
2014,07,13,16,05,24.30
2014,07,13,16,06,24.40
2014,07,13,16,07,24.40
2014,07,13,16,08,24.40
2014,07,13,16,09,24.40
2014,07,13,16,10,24.40
2014,07,13,16,11,24.40
2014,07,13,16,12,24.40
2014,07,13,16,13,24.40
2014,07,13,16,14,24.40
2014,07,13,16,15,24.50
2014,07,13,16,16,24.60
2014,07,13,16,17,24.60
2014,07,13,16,18,24.60
2014,07,13,16,19,24.70
2014,07,13,16,20,24.70
2014,07,13,16,21,24.70
2014,07,13,16,22,24.80
2014,07,13,16,23,24.80
2014,07,13,16,24,24.90
2014,07,13,16,25,24.90
2014,07,13,16,26,24.90
2014,07,13,16,27,25.00
2014,07,13,16,28,25.00
2014,07,13,16,29,25.00
2014,07,13,16,30,25.10
2014,07,13,16,31,25.10
2014,07,13,16,32,25.20
2014,07,13,16,33,25.20
2014,07,13,16,34,25.30
2014,07,13,16,35,25.30
2014,07,13,16,36,25.40
2014,07,13,16,37,25.40
2014,07,13,16,38,25.50
2014,07,13,16,39,25.60
2014,07,13,16,40,25.70
2014,07,13,16,41,25.80
2014,07,13,16,42,25.80
2014,07,13,16,43,25.90
2014,07,13,16,44,26.00
2014,07,13,16,45,26.10
2014,07,13,16,46,26.10
2014,07,13,16,47,26.10
2014,07,13,16,48,26.10
2014,07,13,16,49,26.10
2014,07,13,16,50,26.10
2014,07,13,16,51,26.10
2014,07,13,16,52,26.10
2014,07,13,16,53,26.00
2014,07,13,16,54,26.00
2014,07,13,16,55,26.00
2014,07,13,16,56,25.90
2014,07,13,16,57,25.90
2014,07,13,16,58,25.90
2014,07,13,16,59,25.80
2014,07,13,17,00,25.80
2014,07,13,17,01,25.80
2014,07,13,17,02,25.80
2014,07,13,17,03,25.80
2014,07,13,17,04,25.80
2014,07,13,17,05,25.80
2014,07,13,17,06,25.80
2014,07,13,17,07,25.80
2014,07,13,17,08,25.80
2014,07,13,17,09,25.80
2014,07,13,17,10,25.80
2014,07,13,17,11,25.80
2014,07,13,17,12,25.80
2014,07,13,17,13,25.80
2014,07,13,17,14,25.90
2014,07,13,17,15,25.90
2014,07,13,17,16,25.90
2014,07,13,17,17,25.80
2014,07,13,17,18,25.80
2014,07,13,17,19,25.90